"Sample Date","Sample Time","Sample Value","Units","Flow Rate","Laser Status","Micron Size 0","Counts/Channel 0","Micron Size 1","Counts/Channel 1","Micron Size 2","Counts/Channel 2","Micron Size 3","Counts/Channel 3","Micron Size 4","Counts/Channel 4","Micron Size 5","Counts/Channel 5","Micron Size 6","Counts/Channel 6","Micron Size 7","Counts/Channel 7","Micron Size 8","Counts/Channel 8","Micron Size 9","Counts/Channel 9","Micron Size 10","Counts/Channel 10","Micron Size 11","Counts/Channel 11","Micron Size 12","Counts/Channel 12","Micron Size 13","Counts/Channel 13","Micron Size 14","Counts/Channel 14","Micron Size 15","Counts/Channel 15","Micron Size 16","Counts/Channel 16","Micron Size 17","Counts/Channel 17","Micron Size 18","Counts/Channel 18","Micron Size 19","Counts/Channel 19","Micron Size 20","Counts/Channel 20","Micron Size 21","Counts/Channel 21","Micron Size 22","Counts/Channel 22","Micron Size 23","Counts/Channel 23","Micron Size 24","Counts/Channel 24","Micron Size 25","Counts/Channel 25","Micron Size 26","Counts/Channel 26","Micron Size 27","Counts/Channel 27","Micron Size 28","Counts/Channel 28","Micron Size 29","Counts/Channel 29","Micron Size 30","Counts/Channel 30","Micron Size 31","Counts/Channel 31"
"03/02/08","22:00:03",42871.000,"cc",28326.471,1,0.100,39255.000,0.200,2114.000,0.300,625.000,0.500,624.000,1.000,253.000,5.000,0
"03/02/08","22:00:09",43010.000,"cc",28315.473,1,0.100,39374.000,0.200,2178.000,0.300,587.000,0.500,629.000,1.000,242.000,5.000,0
"03/02/08","22:00:15",42551.000,"cc",28267.133,1,0.100,38975.000,0.200,2099.000,0.300,626.000,0.500,616.000,1.000,235.000,5.000,0
"03/02/08","22:00:21",42780.000,"cc",28290.645,1,0.100,39209.000,0.200,2132.000,0.300,601.000,0.500,588.000,1.000,250.000,5.000,0
"03/02/08","22:00:27",42542.000,"cc",28276.822,1,0.100,39003.000,0.200,2133.000,0.300,573.000,0.500,590.000,1.000,243.000,5.000,0
"03/02/08","22:00:33",42951.000,"cc",28319.307,1,0.100,39339.000,0.200,2143.000,0.300,599.000,0.500,621.000,1.000,249.000,5.000,0
"03/02/08","22:00:39",42877.000,"cc",28286.729,1,0.100,39264.000,0.200,2131.000,0.300,629.000,0.500,627.000,1.000,226.000,5.000,0
"03/02/08","22:00:45",42949.000,"cc",28351.289,1,0.100,39419.000,0.200,2060.000,0.300,601.000,0.500,613.000,1.000,256.000,5.000,0
"03/02/08","22:00:51",42895.000,"cc",28337.012,1,0.100,39380.000,0.200,2068.000,0.300,612.000,0.500,602.000,1.000,233.000,5.000,0
"03/02/08","22:00:57",42605.000,"cc",28339.508,1,0.100,39018.000,0.200,2173.000,0.300,612.000,0.500,592.000,1.000,210.000,5.000,0
"03/02/08","22:01:03",42961.000,"cc",28306.922,1,0.100,39455.000,0.200,2061.000,0.300,609.000,0.500,580.000,1.000,256.000,5.000,0
"03/02/08","22:01:09",43233.000,"cc",28318.572,1,0.100,39530.000,0.200,2166.000,0.300,668.000,0.500,621.000,1.000,248.000,5.000,0
"03/02/08","22:01:15",42709.000,"cc",28272.236,1,0.100,39210.000,0.200,2023.000,0.300,607.000,0.500,630.000,1.000,239.000,5.000,0
"03/02/08","22:01:21",43057.000,"cc",28313.949,1,0.100,39672.000,0.200,2042.000,0.300,584.000,0.500,538.000,1.000,221.000,5.000,0
"03/02/08","22:01:27",42974.000,"cc",28342.479,1,0.100,39328.000,0.200,2124.000,0.300,684.000,0.500,585.000,1.000,253.000,5.000,0
"03/02/08","22:01:33",42958.000,"cc",28347.510,1,0.100,39331.000,0.200,2146.000,0.300,634.000,0.500,614.000,1.000,233.000,5.000,0
"03/02/08","22:01:39",42809.000,"cc",28304.766,1,0.100,39318.000,0.200,2119.000,0.300,590.000,0.500,581.000,1.000,201.000,5.000,0
"03/02/08","22:01:45",42722.000,"cc",28284.463,1,0.100,39166.000,0.200,2125.000,0.300,579.000,0.500,596.000,1.000,256.000,5.000,0
"03/02/08","22:01:51",42825.000,"cc",28322.602,1,0.100,39264.000,0.200,2100.000,0.300,622.000,0.500,612.000,1.000,227.000,5.000,0
"03/02/08","22:01:57",43130.000,"cc",28369.428,1,0.100,39537.000,0.200,2087.000,0.300,645.000,0.500,636.000,1.000,225.000,5.000,0
"03/02/08","22:02:03",42734.000,"cc",28328.340,1,0.100,39223.000,0.200,2070.000,0.300,613.000,0.500,597.000,1.000,231.000,5.000,0
"03/02/08","22:02:09",42922.000,"cc",28316.104,1,0.100,39324.000,0.200,2158.000,0.300,603.000,0.500,609.000,1.000,228.000,5.000,0
"03/02/08","22:02:15",42976.000,"cc",28303.965,1,0.100,39436.000,0.200,2114.000,0.300,578.000,0.500,642.000,1.000,206.000,5.000,0
"03/02/08","22:02:21",42814.000,"cc",28308.063,1,0.100,39309.000,0.200,2136.000,0.300,610.000,0.500,551.000,1.000,208.000,5.000,0
"03/02/08","22:02:27",42788.000,"cc",28329.988,1,0.100,39179.000,0.200,2174.000,0.300,619.000,0.500,601.000,1.000,215.000,5.000,0
"03/02/08","22:02:33",42863.000,"cc",28316.356,1,0.100,39295.000,0.200,2166.000,0.300,577.000,0.500,586.000,1.000,239.000,5.000,0
"03/02/08","22:02:39",43073.000,"cc",28315.254,1,0.100,39441.000,0.200,2158.000,0.300,602.000,0.500,617.000,1.000,255.000,5.000,0
"03/02/08","22:02:45",43292.000,"cc",28336.420,1,0.100,39638.000,0.200,2190.000,0.300,618.000,0.500,603.000,1.000,243.000,5.000,0
"03/02/08","22:02:51",42748.000,"cc",28338.631,1,0.100,39194.000,0.200,2066.000,0.300,646.000,0.500,601.000,1.000,241.000,5.000,0
"03/02/08","22:02:57",42464.000,"cc",28411.891,1,0.100,38847.000,0.200,2153.000,0.300,639.000,0.500,608.000,1.000,217.000,5.000,0
"03/02/08","22:03:03",42635.000,"cc",28260.387,1,0.100,39048.000,0.200,2152.000,0.300,635.000,0.500,581.000,1.000,219.000,5.000,0
"03/02/08","22:03:09",42820.000,"cc",28245.902,1,0.100,39218.000,0.200,2096.000,0.300,609.000,0.500,653.000,1.000,244.000,5.000,0
"03/02/08","22:03:15",42839.000,"cc",28281.217,1,0.100,39393.000,0.200,2047.000,0.300,617.000,0.500,562.000,1.000,220.000,5.000,0
"03/02/08","22:03:21",43248.000,"cc",28293.203,1,0.100,39698.000,0.200,2144.000,0.300,612.000,0.500,580.000,1.000,214.000,5.000,0
"03/02/08","22:03:27",42954.000,"cc",28363.715,1,0.100,39460.000,0.200,2078.000,0.300,610.000,0.500,562.000,1.000,244.000,5.000,0
"03/02/08","22:03:33",42738.000,"cc",28333.924,1,0.100,39170.000,0.200,2104.000,0.300,611.000,0.500,614.000,1.000,239.000,5.000,0
"03/02/08","22:03:39",43003.000,"cc",28329.000,1,0.100,39472.000,0.200,2103.000,0.300,591.000,0.500,612.000,1.000,225.000,5.000,0
"03/02/08","22:03:45",42957.000,"cc",28304.754,1,0.100,39451.000,0.200,2128.000,0.300,573.000,0.500,592.000,1.000,213.000,5.000,0
"03/02/08","22:03:51",42974.000,"cc",28303.008,1,0.100,39474.000,0.200,2144.000,0.300,591.000,0.500,543.000,1.000,222.000,5.000,0
"03/02/08","22:03:57",42422.000,"cc",28330.311,1,0.100,38871.000,0.200,2093.000,0.300,635.000,0.500,590.000,1.000,233.000,5.000,0
"03/02/08","22:04:03",42653.000,"cc",28314.648,1,0.100,39178.000,0.200,2090.000,0.300,579.000,0.500,581.000,1.000,225.000,5.000,0
"03/02/08","22:04:09",42834.000,"cc",28327.772,1,0.100,39431.000,0.200,2049.000,0.300,549.000,0.500,595.000,1.000,210.000,5.000,0
"03/02/08","22:04:15",42916.000,"cc",28281.893,1,0.100,39478.000,0.200,2073.000,0.300,573.000,0.500,577.000,1.000,215.000,5.000,0
"03/02/08","22:04:21",42711.000,"cc",28303.941,1,0.100,39189.000,0.200,2087.000,0.300,619.000,0.500,601.000,1.000,215.000,5.000,0
"03/02/08","22:04:27",42414.000,"cc",28348.887,1,0.100,38936.000,0.200,2057.000,0.300,603.000,0.500,595.000,1.000,223.000,5.000,0
"03/02/08","22:04:33",41990.000,"cc",28335.902,1,0.100,38615.000,0.200,1969.000,0.300,577.000,0.500,609.000,1.000,220.000,5.000,0
"03/02/08","22:04:39",42444.000,"cc",28319.106,1,0.100,39040.000,0.200,1961.000,0.300,620.000,0.500,616.000,1.000,207.000,5.000,0
"03/02/08","22:04:45",42728.000,"cc",28299.600,1,0.100,39266.000,0.200,1994.000,0.300,601.000,0.500,619.000,1.000,248.000,5.000,0
"03/02/08","22:04:51",42200.000,"cc",28321.986,1,0.100,38726.000,0.200,2037.000,0.300,623.000,0.500,615.000,1.000,199.000,5.000,0
"03/02/08","22:04:57",42483.000,"cc",28273.330,1,0.100,39025.000,0.200,2004.000,0.300,611.000,0.500,624.000,1.000,219.000,5.000,0
"03/02/08","22:05:03",42761.000,"cc",28370.102,1,0.100,39208.000,0.200,2123.000,0.300,649.000,0.500,569.000,1.000,212.000,5.000,0
"03/02/08","22:05:09",42554.000,"cc",28319.461,1,0.100,39048.000,0.200,2111.000,0.300,589.000,0.500,565.000,1.000,241.000,5.000,0
"03/02/08","22:05:15",42551.000,"cc",28320.615,1,0.100,38969.000,0.200,2050.000,0.300,651.000,0.500,657.000,1.000,224.000,5.000,0
"03/02/08","22:05:21",42365.000,"cc",28321.854,1,0.100,38880.000,0.200,2033.000,0.300,621.000,0.500,586.000,1.000,245.000,5.000,0
"03/02/08","22:05:27",42233.000,"cc",28284.350,1,0.100,38725.000,0.200,2070.000,0.300,586.000,0.500,602.000,1.000,250.000,5.000,0
"03/02/08","22:05:33",42498.000,"cc",28287.910,1,0.100,39142.000,0.200,1941.000,0.300,605.000,0.500,607.000,1.000,203.000,5.000,0
"03/02/08","22:05:39",42311.000,"cc",28333.543,1,0.100,38918.000,0.200,1998.000,0.300,601.000,0.500,542.000,1.000,252.000,5.000,0
"03/02/08","22:05:45",42131.000,"cc",28346.426,1,0.100,38713.000,0.200,1950.000,0.300,631.000,0.500,607.000,1.000,230.000,5.000,0
"03/02/08","22:05:51",42322.000,"cc",28250.365,1,0.100,38816.000,0.200,2002.000,0.300,652.000,0.500,626.000,1.000,226.000,5.000,0
"03/02/08","22:05:57",42221.000,"cc",28367.242,1,0.100,38885.000,0.200,1900.000,0.300,577.000,0.500,627.000,1.000,232.000,5.000,0
"03/02/08","22:06:03",42013.000,"cc",28333.344,1,0.100,38562.000,0.200,1946.000,0.300,645.000,0.500,623.000,1.000,237.000,5.000,0
"03/02/08","22:06:09",42022.000,"cc",28265.330,1,0.100,38599.000,0.200,1984.000,0.300,626.000,0.500,587.000,1.000,226.000,5.000,0
"03/02/08","22:06:15",42110.000,"cc",28291.893,1,0.100,38735.000,0.200,1948.000,0.300,584.000,0.500,621.000,1.000,222.000,5.000,0
"03/02/08","22:06:21",42506.000,"cc",28311.928,1,0.100,39024.000,0.200,2042.000,0.300,581.000,0.500,616.000,1.000,243.000,5.000,0
"03/02/08","22:06:27",42360.000,"cc",28335.955,1,0.100,38932.000,0.200,2045.000,0.300,571.000,0.500,585.000,1.000,227.000,5.000,0
"03/02/08","22:06:33",42424.000,"cc",28377.994,1,0.100,39040.000,0.200,1929.000,0.300,621.000,0.500,608.000,1.000,226.000,5.000,0
"03/02/08","22:06:39",42164.000,"cc",28333.688,1,0.100,38575.000,0.200,2082.000,0.300,613.000,0.500,646.000,1.000,248.000,5.000,0
"03/02/08","22:06:45",42759.000,"cc",28314.244,1,0.100,39270.000,0.200,2016.000,0.300,627.000,0.500,610.000,1.000,236.000,5.000,0
"03/02/08","22:06:51",42316.000,"cc",28311.033,1,0.100,38863.000,0.200,1978.000,0.300,610.000,0.500,623.000,1.000,242.000,5.000,0
"03/02/08","22:06:57",42081.000,"cc",28318.174,1,0.100,38719.000,0.200,1941.000,0.300,575.000,0.500,613.000,1.000,233.000,5.000,0
"03/02/08","22:07:03",41855.000,"cc",28256.629,1,0.100,38499.000,0.200,1932.000,0.300,606.000,0.500,590.000,1.000,228.000,5.000,0
"03/02/08","22:07:09",42135.000,"cc",28301.631,1,0.100,38697.000,0.200,2043.000,0.300,606.000,0.500,568.000,1.000,221.000,5.000,0
"03/02/08","22:07:15",42014.000,"cc",28326.850,1,0.100,38651.000,0.200,1938.000,0.300,567.000,0.500,617.000,1.000,241.000,5.000,0
"03/02/08","22:07:21",41993.000,"cc",28350.387,1,0.100,38581.000,0.200,1972.000,0.300,616.000,0.500,605.000,1.000,219.000,5.000,0
"03/02/08","22:07:27",41537.000,"cc",28338.775,1,0.100,38120.000,0.200,1959.000,0.300,615.000,0.500,629.000,1.000,214.000,5.000,0
"03/02/08","22:07:33",42057.000,"cc",28311.510,1,0.100,38626.000,0.200,1946.000,0.300,611.000,0.500,614.000,1.000,260.000,5.000,0
"03/02/08","22:07:39",41999.000,"cc",28275.508,1,0.100,38636.000,0.200,1910.000,0.300,621.000,0.500,593.000,1.000,239.000,5.000,0
"03/02/08","22:07:45",42260.000,"cc",28312.313,1,0.100,38832.000,0.200,1968.000,0.300,597.000,0.500,600.000,1.000,263.000,5.000,0
"03/02/08","22:07:51",41774.000,"cc",28306.719,1,0.100,38439.000,0.200,1919.000,0.300,602.000,0.500,591.000,1.000,223.000,5.000,0
"03/02/08","22:07:57",42154.000,"cc",28275.525,1,0.100,38722.000,0.200,1975.000,0.300,623.000,0.500,617.000,1.000,217.000,5.000,0
"03/02/08","22:08:03",42012.000,"cc",28362.022,1,0.100,38614.000,0.200,1978.000,0.300,629.000,0.500,563.000,1.000,228.000,5.000,0
"03/02/08","22:08:09",41702.000,"cc",28327.272,1,0.100,38369.000,0.200,1912.000,0.300,603.000,0.500,603.000,1.000,215.000,5.000,0
"03/02/08","22:08:15",41960.000,"cc",28297.699,1,0.100,38642.000,0.200,1917.000,0.300,572.000,0.500,599.000,1.000,230.000,5.000,0
"03/02/08","22:08:21",41485.000,"cc",28332.930,1,0.100,38062.000,0.200,1985.000,0.300,613.000,0.500,602.000,1.000,223.000,5.000,0
"03/02/08","22:08:27",41681.000,"cc",28304.141,1,0.100,38417.000,0.200,1849.000,0.300,562.000,0.500,622.000,1.000,231.000,5.000,0
"03/02/08","22:08:33",41687.000,"cc",28267.342,1,0.100,38392.000,0.200,1886.000,0.300,583.000,0.500,591.000,1.000,235.000,5.000,0
"03/02/08","22:08:39",41970.000,"cc",28333.135,1,0.100,38682.000,0.200,1923.000,0.300,555.000,0.500,602.000,1.000,208.000,5.000,0
"03/02/08","22:08:45",41491.000,"cc",28351.592,1,0.100,38160.000,0.200,1892.000,0.300,590.000,0.500,631.000,1.000,218.000,5.000,0
"03/02/08","22:08:51",41942.000,"cc",28334.215,1,0.100,38618.000,0.200,1899.000,0.300,622.000,0.500,584.000,1.000,219.000,5.000,0
"03/02/08","22:08:57",41384.000,"cc",28374.990,1,0.100,38116.000,0.200,1845.000,0.300,579.000,0.500,608.000,1.000,236.000,5.000,0
"03/02/08","22:09:03",41881.000,"cc",28299.215,1,0.100,38490.000,0.200,1911.000,0.300,580.000,0.500,630.000,1.000,270.000,5.000,0
"03/02/08","22:09:09",41530.000,"cc",28298.990,1,0.100,38232.000,0.200,1895.000,0.300,603.000,0.500,587.000,1.000,213.000,5.000,0
"03/02/08","22:09:15",42009.000,"cc",28260.106,1,0.100,38621.000,0.200,1973.000,0.300,607.000,0.500,586.000,1.000,222.000,5.000,0
"03/02/08","22:09:21",41995.000,"cc",28345.348,1,0.100,38595.000,0.200,1954.000,0.300,616.000,0.500,613.000,1.000,217.000,5.000,0
"03/02/08","22:09:27",41900.000,"cc",28333.641,1,0.100,38606.000,0.200,1884.000,0.300,571.000,0.500,621.000,1.000,218.000,5.000,0
"03/02/08","22:09:33",41901.000,"cc",28319.297,1,0.100,38577.000,0.200,1902.000,0.300,580.000,0.500,591.000,1.000,251.000,5.000,0
"03/02/08","22:09:39",41630.000,"cc",28348.959,1,0.100,38202.000,0.200,1958.000,0.300,656.000,0.500,582.000,1.000,232.000,5.000,0
"03/02/08","22:09:45",41884.000,"cc",28329.148,1,0.100,38658.000,0.200,1860.000,0.300,572.000,0.500,574.000,1.000,220.000,5.000,0
"03/02/08","22:09:51",41543.000,"cc",28322.244,1,0.100,38285.000,0.200,1850.000,0.300,584.000,0.500,586.000,1.000,238.000,5.000,0
"03/02/08","22:09:57",42013.000,"cc",28286.527,1,0.100,38631.000,0.200,1925.000,0.300,624.000,0.500,605.000,1.000,228.000,5.000,0
"03/02/08","22:10:03",42020.000,"cc",28285.477,1,0.100,38636.000,0.200,1951.000,0.300,603.000,0.500,581.000,1.000,249.000,5.000,0
"03/02/08","22:10:09",41840.000,"cc",28318.734,1,0.100,38444.000,0.200,1997.000,0.300,595.000,0.500,595.000,1.000,209.000,5.000,0
"03/02/08","22:10:15",41541.000,"cc",28273.475,1,0.100,38173.000,0.200,1922.000,0.300,632.000,0.500,605.000,1.000,209.000,5.000,0
"03/02/08","22:10:21",41791.000,"cc",28317.426,1,0.100,38358.000,0.200,1941.000,0.300,596.000,0.500,656.000,1.000,240.000,5.000,0
"03/02/08","22:10:27",41521.000,"cc",28367.283,1,0.100,38191.000,0.200,1914.000,0.300,588.000,0.500,636.000,1.000,192.000,5.000,0
"03/02/08","22:10:33",41913.000,"cc",28326.102,1,0.100,38516.000,0.200,1920.000,0.300,611.000,0.500,615.000,1.000,251.000,5.000,0
"03/02/08","22:10:39",41716.000,"cc",28262.389,1,0.100,38376.000,0.200,1897.000,0.300,616.000,0.500,584.000,1.000,243.000,5.000,0
"03/02/08","22:10:45",41783.000,"cc",28296.549,1,0.100,38434.000,0.200,1892.000,0.300,581.000,0.500,645.000,1.000,231.000,5.000,0
"03/02/08","22:10:51",41476.000,"cc",28421.807,1,0.100,38106.000,0.200,1967.000,0.300,594.000,0.500,593.000,1.000,216.000,5.000,0
"03/02/08","22:10:57",41574.000,"cc",28320.545,1,0.100,38244.000,0.200,1854.000,0.300,614.000,0.500,594.000,1.000,268.000,5.000,0
"03/02/08","22:11:03",41344.000,"cc",28329.047,1,0.100,38035.000,0.200,1905.000,0.300,599.000,0.500,595.000,1.000,210.000,5.000,0
"03/02/08","22:11:09",42156.000,"cc",28361.859,1,0.100,38834.000,0.200,1878.000,0.300,599.000,0.500,600.000,1.000,245.000,5.000,0
"03/02/08","22:11:15",41744.000,"cc",28296.553,1,0.100,38447.000,0.200,1880.000,0.300,584.000,0.500,593.000,1.000,240.000,5.000,0
"03/02/08","22:11:21",41725.000,"cc",28302.311,1,0.100,38323.000,0.200,1942.000,0.300,653.000,0.500,565.000,1.000,242.000,5.000,0
"03/02/08","22:11:27",41832.000,"cc",28343.662,1,0.100,38483.000,0.200,1900.000,0.300,579.000,0.500,603.000,1.000,267.000,5.000,0
"03/02/08","22:11:33",41716.000,"cc",28250.604,1,0.100,38441.000,0.200,1851.000,0.300,575.000,0.500,634.000,1.000,215.000,5.000,0
"03/02/08","22:11:39",41525.000,"cc",28225.672,1,0.100,38271.000,0.200,1928.000,0.300,529.000,0.500,605.000,1.000,192.000,5.000,0
"03/02/08","22:11:45",41670.000,"cc",28319.770,1,0.100,38394.000,0.200,1850.000,0.300,568.000,0.500,623.000,1.000,235.000,5.000,0
"03/02/08","22:11:51",41428.000,"cc",28415.811,1,0.100,38147.000,0.200,1872.000,0.300,581.000,0.500,589.000,1.000,239.000,5.000,0
"03/02/08","22:11:57",41458.000,"cc",28305.772,1,0.100,38127.000,0.200,1864.000,0.300,603.000,0.500,631.000,1.000,233.000,5.000,0
"03/02/08","22:12:03",41718.000,"cc",28266.797,1,0.100,38393.000,0.200,1948.000,0.300,593.000,0.500,571.000,1.000,213.000,5.000,0
"03/02/08","22:12:09",41513.000,"cc",28369.906,1,0.100,38197.000,0.200,1934.000,0.300,577.000,0.500,594.000,1.000,211.000,5.000,0
"03/02/08","22:12:15",41884.000,"cc",28340.201,1,0.100,38587.000,0.200,1880.000,0.300,569.000,0.500,600.000,1.000,248.000,5.000,0
"03/02/08","22:12:21",41534.000,"cc",28312.508,1,0.100,38266.000,0.200,1861.000,0.300,576.000,0.500,609.000,1.000,222.000,5.000,0
"03/02/08","22:12:27",41536.000,"cc",28275.398,1,0.100,38185.000,0.200,1899.000,0.300,617.000,0.500,605.000,1.000,230.000,5.000,0
"03/02/08","22:12:33",41797.000,"cc",28274.441,1,0.100,38502.000,0.200,1838.000,0.300,607.000,0.500,615.000,1.000,235.000,5.000,0
"03/02/08","22:12:39",41709.000,"cc",28365.799,1,0.100,38373.000,0.200,1887.000,0.300,599.000,0.500,603.000,1.000,247.000,5.000,0
"03/02/08","22:12:45",41765.000,"cc",28321.293,1,0.100,38502.000,0.200,1814.000,0.300,639.000,0.500,598.000,1.000,212.000,5.000,0
"03/02/08","22:12:51",41799.000,"cc",28311.758,1,0.100,38475.000,0.200,1850.000,0.300,629.000,0.500,588.000,1.000,257.000,5.000,0
"03/02/08","22:12:57",41452.000,"cc",28301.133,1,0.100,38121.000,0.200,1932.000,0.300,586.000,0.500,583.000,1.000,230.000,5.000,0
"03/02/08","22:13:03",41343.000,"cc",28299.678,1,0.100,38003.000,0.200,1893.000,0.300,575.000,0.500,638.000,1.000,234.000,5.000,0
"03/02/08","22:13:09",41723.000,"cc",28305.522,1,0.100,38466.000,0.200,1860.000,0.300,563.000,0.500,592.000,1.000,242.000,5.000,0
"03/02/08","22:13:15",41751.000,"cc",28350.875,1,0.100,38422.000,0.200,1915.000,0.300,574.000,0.500,612.000,1.000,228.000,5.000,0
"03/02/08","22:13:21",41758.000,"cc",28333.815,1,0.100,38503.000,0.200,1849.000,0.300,579.000,0.500,613.000,1.000,214.000,5.000,0
"03/02/08","22:13:27",42192.000,"cc",28324.178,1,0.100,38899.000,0.200,1901.000,0.300,561.000,0.500,635.000,1.000,196.000,5.000,0
"03/02/08","22:13:33",41715.000,"cc",28329.643,1,0.100,38409.000,0.200,1880.000,0.300,591.000,0.500,595.000,1.000,240.000,5.000,0
"03/02/08","22:13:39",41300.000,"cc",28347.889,1,0.100,38097.000,0.200,1814.000,0.300,578.000,0.500,578.000,1.000,233.000,5.000,0
"03/02/08","22:13:45",41657.000,"cc",28289.088,1,0.100,38361.000,0.200,1828.000,0.300,624.000,0.500,621.000,1.000,223.000,5.000,0
"03/02/08","22:13:51",41537.000,"cc",28328.309,1,0.100,38198.000,0.200,1873.000,0.300,590.000,0.500,636.000,1.000,240.000,5.000,0
"03/02/08","22:13:57",41545.000,"cc",28290.680,1,0.100,38223.000,0.200,1879.000,0.300,638.000,0.500,604.000,1.000,201.000,5.000,0
"03/02/08","22:14:03",41857.000,"cc",28367.025,1,0.100,38460.000,0.200,1924.000,0.300,615.000,0.500,605.000,1.000,253.000,5.000,0
"03/02/08","22:14:09",41861.000,"cc",28295.193,1,0.100,38472.000,0.200,1868.000,0.300,648.000,0.500,626.000,1.000,247.000,5.000,0
"03/02/08","22:14:15",41139.000,"cc",28286.645,1,0.100,37830.000,0.200,1915.000,0.300,575.000,0.500,571.000,1.000,248.000,5.000,0
"03/02/08","22:14:21",41570.000,"cc",28336.768,1,0.100,38272.000,0.200,1857.000,0.300,606.000,0.500,599.000,1.000,236.000,5.000,0
"03/02/08","22:14:27",41691.000,"cc",28276.690,1,0.100,38384.000,0.200,1884.000,0.300,595.000,0.500,591.000,1.000,237.000,5.000,0
"03/02/08","22:14:33",41700.000,"cc",28275.908,1,0.100,38403.000,0.200,1911.000,0.300,583.000,0.500,562.000,1.000,241.000,5.000,0
"03/02/08","22:14:39",41640.000,"cc",28423.725,1,0.100,38356.000,0.200,1814.000,0.300,668.000,0.500,580.000,1.000,222.000,5.000,0
"03/02/08","22:14:45",41479.000,"cc",28336.598,1,0.100,38188.000,0.200,1873.000,0.300,571.000,0.500,600.000,1.000,247.000,5.000,0
"03/02/08","22:14:51",41455.000,"cc",28322.293,1,0.100,38099.000,0.200,1891.000,0.300,595.000,0.500,640.000,1.000,230.000,5.000,0
"03/02/08","22:14:57",41740.000,"cc",28239.256,1,0.100,38349.000,0.200,1919.000,0.300,608.000,0.500,642.000,1.000,222.000,5.000,0
"03/02/08","22:15:03",41745.000,"cc",28368.670,1,0.100,38441.000,0.200,1858.000,0.300,587.000,0.500,619.000,1.000,240.000,5.000,0
"03/02/08","22:15:09",41201.000,"cc",28293.252,1,0.100,37985.000,0.200,1793.000,0.300,558.000,0.500,618.000,1.000,247.000,5.000,0
"03/02/08","22:15:15",41660.000,"cc",28343.578,1,0.100,38278.000,0.200,1871.000,0.300,642.000,0.500,632.000,1.000,237.000,5.000,0
"03/02/08","22:15:21",41751.000,"cc",28289.291,1,0.100,38372.000,0.200,1879.000,0.300,641.000,0.500,612.000,1.000,247.000,5.000,0
"03/02/08","22:15:27",41662.000,"cc",28280.014,1,0.100,38414.000,0.200,1829.000,0.300,610.000,0.500,579.000,1.000,230.000,5.000,0
"03/02/08","22:15:33",41584.000,"cc",28311.697,1,0.100,38312.000,0.200,1825.000,0.300,642.000,0.500,604.000,1.000,201.000,5.000,0
"03/02/08","22:15:39",41611.000,"cc",28280.592,1,0.100,38416.000,0.200,1790.000,0.300,617.000,0.500,587.000,1.000,201.000,5.000,0
"03/02/08","22:15:45",41827.000,"cc",28400.322,1,0.100,38471.000,0.200,1926.000,0.300,570.000,0.500,614.000,1.000,246.000,5.000,0
"03/02/08","22:15:51",41536.000,"cc",28366.248,1,0.100,38219.000,0.200,1900.000,0.300,616.000,0.500,581.000,1.000,220.000,5.000,0
"03/02/08","22:15:57",41427.000,"cc",28251.430,1,0.100,38090.000,0.200,1853.000,0.300,611.000,0.500,616.000,1.000,257.000,5.000,0
"03/02/08","22:16:03",41704.000,"cc",28335.711,1,0.100,38335.000,0.200,1893.000,0.300,607.000,0.500,627.000,1.000,242.000,5.000,0
"03/02/08","22:16:09",41746.000,"cc",28322.436,1,0.100,38360.000,0.200,1943.000,0.300,588.000,0.500,612.000,1.000,243.000,5.000,0
"03/02/08","22:16:15",41270.000,"cc",28316.949,1,0.100,37942.000,0.200,1912.000,0.300,583.000,0.500,618.000,1.000,215.000,5.000,0
"03/02/08","22:16:21",41392.000,"cc",28298.920,1,0.100,38223.000,0.200,1774.000,0.300,564.000,0.500,612.000,1.000,219.000,5.000,0
"03/02/08","22:16:27",41938.000,"cc",28355.174,1,0.100,38543.000,0.200,1892.000,0.300,603.000,0.500,655.000,1.000,245.000,5.000,0
"03/02/08","22:16:33",41683.000,"cc",28359.391,1,0.100,38438.000,0.200,1789.000,0.300,650.000,0.500,627.000,1.000,179.000,5.000,0
"03/02/08","22:16:39",41654.000,"cc",28317.910,1,0.100,38433.000,0.200,1856.000,0.300,579.000,0.500,572.000,1.000,214.000,5.000,0
"03/02/08","22:16:45",41540.000,"cc",28262.879,1,0.100,38274.000,0.200,1863.000,0.300,576.000,0.500,579.000,1.000,248.000,5.000,0
"03/02/08","22:16:51",41496.000,"cc",28272.846,1,0.100,38113.000,0.200,1889.000,0.300,594.000,0.500,660.000,1.000,240.000,5.000,0
"03/02/08","22:16:57",41146.000,"cc",28276.813,1,0.100,37901.000,0.200,1830.000,0.300,588.000,0.500,615.000,1.000,212.000,5.000,0
"03/02/08","22:17:03",41727.000,"cc",28456.705,1,0.100,38435.000,0.200,1890.000,0.300,607.000,0.500,575.000,1.000,220.000,5.000,0
"03/02/08","22:17:09",41394.000,"cc",28302.525,1,0.100,38091.000,0.200,1909.000,0.300,568.000,0.500,624.000,1.000,202.000,5.000,0
"03/02/08","22:17:15",41358.000,"cc",28261.824,1,0.100,38125.000,0.200,1820.000,0.300,586.000,0.500,620.000,1.000,207.000,5.000,0